Theta_e
318 320 317 315 318 319 320 320 320 321 321 323 327 325 325 323 323 321 321 320 319 318 319 319 317 315 317 318 317 316 324 325
328 329 328 321 313 314 317 320 323 326 327 328 329 329 327 326 324 324 323 322 321 321 320 320 320 320 320 319 318 319 322 323
329 330 330 325 326 324 326 329 329 330 329 330 329 328 327 326 326 326 324 321 321 321 320 321 321 321 320 317 318 317 318 319
328 327 328 328 327 327 326 329 329 329 329 329 329 328 328 327 327 325 320 321 321 318 320 320 321 320 318 314 315 315 315 314
329 329 326 327 327 328 327 328 330 331 329 328 326 326 325 323 321 320 319 318 318 318 319 318 318 319 317 315 313 312 312 313
331 326 327 327 327 327 327 326 328 326 328 326 325 324 323 321 320 318 318 317 318 317 317 316 317 318 317 315 314 312 312 312
332 325 317 324 327 326 326 327 324 325 323 322 318 323 321 320 319 318 318 318 317 317 317 316 317 318 318 317 314 313 312 311
331 328 327 323 327 326 324 322 322 322 321 319 318 319 320 319 318 318 318 318 318 318 317 317 318 317 317 318 317 316 314 312
331 329 326 326 327 324 325 320 320 320 320 319 319 319 319 319 318 318 317 317 317 315 316 317 317 317 317 317 317 317 316 314
331 326 326 325 325 322 321 321 320 320 320 320 319 317 316 316 314 313 313 313 313 314 313 314 315 314 313 313 314 315 315 315
329 326 325 324 325 321 321 321 319 318 317 316 315 315 315 314 310 309 309 309 309 309 310 309 308 308 308 311 313 314 314 313
329 327 325 323 322 322 320 319 317 316 315 314 313 312 311 311 310 309 308 307 307 308 307 306 308 310 310 310 310 311 312 312
323 319 317 321 320 318 315 315 315 315 313 312 312 312 312 311 309 306 306 307 306 306 306 305 306 307 308 308 309 309 309 309
317 316 316 315 315 315 314 315 314 314 313 313 311 310 309 307 305 305 305 305 306 305 304 306 307 306 306 306 306 306 306 306
315 315 314 314 314 314 313 313 313 314 313 312 309 307 306 304 303 303 303 303 304 303 303 306 305 306 306 305 304 304 302 305
315 315 314 314 313 313 313 313 313 311 309 308 307 305 304 302 302 302 301 301 302 304 305 304 304 304 303 304 301 300 301 300
315 315 315 314 314 314 313 311 309 310 307 306 305 304 302 301 300 300 302 303 303 302 302 302 302 301 300 301 301 300 299 297
316 315 315 314 314 313 311 310 308 307 305 304 303 301 301 300 301 301 301 301 301 300 300 300 300 299 298 298 298 298 299 298
316 316 315 314 313 312 310 308 306 305 303 302 301 300 300 300 299 298 298 298 298 298 298 298 297 297 296 297 297 297 297 296
315 314 314 311 310 309 307 305 305 304 303 301 300 300 300 297 297 298 298 297 297 297 296 296 296 296 295 296 296 296 296 296
Wind_Speed
20 18 17 15 14 13 14 13 14 14 12 11 12 11 10 11 11 12 11 12 13 12 16 17 13 12 13 14 15 11 11 12
18 14 15 16 15 15 16 15 16 16 13 10 9 7 7 7 9 9 11 14 12 13 15 16 14 14 17 17 15 15 14 8
17 15 13 15 14 13 14 14 13 12 9 5 7 5 4 7 7 7 10 14 10 13 14 14 12 12 18 16 13 16 14 8
19 15 11 10 9 8 10 11 11 11 10 10 8 4 3 3 5 6 12 11 8 14 12 14 10 15 16 17 14 15 14 13
21 17 11 8 6 6 7 10 10 10 9 9 5 5 8 5 6 9 9 11 12 13 11 13 16 15 17 18 14 13 13 13
22 17 17 10 9 13 18 13 12 8 10 6 5 4 1 3 3 4 5 9 10 7 10 16 16 15 16 18 15 12 15 14
23 19 17 13 9 9 11 10 6 8 5 3 5 4 2 2 0 3 6 9 12 13 16 18 19 19 17 17 16 19 18 16
25 18 13 14 11 8 9 8 8 8 5 1 3 2 1 3 5 8 10 12 14 17 20 20 21 21 23 22 22 20 21 21
28 19 8 5 13 11 9 6 7 6 4 3 2 1 4 6 10 12 14 16 19 21 21 21 23 22 23 24 24 24 25 26
30 27 23 12 8 10 13 9 4 3 4 5 7 5 3 5 11 15 17 19 21 21 22 22 20 20 24 26 26 27 29 28
25 17 20 15 19 12 9 4 1 1 7 9 7 4 4 8 16 20 19 19 19 19 21 24 27 28 28 25 25 26 27 30
27 22 15 20 16 9 6 7 9 11 9 10 7 6 8 12 19 20 17 20 21 23 25 27 26 25 25 27 26 25 24 25
24 20 18 14 10 9 11 10 9 13 12 10 9 10 12 16 21 13 13 14 19 22 22 25 28 27 27 24 24 25 22 22
21 20 19 17 16 16 12 10 8 6 9 10 13 14 17 13 14 16 17 17 18 21 24 26 19 16 17 18 5 17 17 21
19 17 13 16 12 7 6 8 9 13 16 17 17 13 12 13 15 16 18 18 20 23 23 18 21 18 10 5 4 3 14 12
15 11 9 6 5 9 8 8 10 13 12 10 9 10 14 17 19 22 24 25 24 19 15 12 13 10 9 7 9 4 2 6
7 5 4 6 3 3 1 3 4 6 8 7 11 16 20 20 23 22 21 18 16 17 16 14 11 10 10 10 9 14 11 2
3 3 11 7 3 1 2 4 7 7 7 10 15 18 17 20 18 18 18 15 15 13 10 10 10 11 12 14 12 6 8 7
1 3 5 7 6 5 5 6 6 8 10 13 16 14 15 13 17 20 18 16 15 14 12 11 12 15 21 20 19 19 19 18
7 5 7 10 9 9 9 8 7 7 9 12 11 7 9 18 21 16 16 19 20 18 18 20 22 23 22 23 23 24 22 20
Wind_Direction
115 106 101 98 101 101 99 95 89 83 80 84 94 86 77 61 29 29 24 23 12 18 18 9 2 4 5 8 11 9 6 358
116 114 117 105 96 96 98 96 94 93 88 92 109 93 83 31 22 28 31 18 22 19 11 8 359 5 356 349 348 1 2 11
130 130 134 118 91 105 112 110 108 106 93 90 108 81 56 21 0 6 18 6 8 8 3 356 350 352 344 335 341 345 356 352
135 125 132 139 117 122 124 140 128 122 107 94 95 63 353 10 4 11 11 359 3 355 353 348 342 336 339 343 319 317 320 346
149 135 137 145 157 153 161 168 144 133 116 116 84 79 105 57 33 5 1 354 344 344 345 348 337 328 328 331 330 334 319 320
154 150 151 147 136 121 127 136 127 128 128 124 126 98 77 92 12 31 348 341 340 338 331 324 313 314 315 318 307 309 315 309
165 159 148 158 133 142 130 128 122 133 149 138 132 122 96 145 270 333 334 338 330 320 320 321 309 307 296 301 294 293 293 296
162 146 146 149 160 145 140 126 126 160 167 331 93 143 270 308 341 344 341 333 325 320 320 316 314 314 309 300 294 287 282 279
133 104 167 179 172 158 162 152 145 184 221 271 284 24 342 357 355 348 342 328 317 316 316 315 311 311 306 306 304 300 292 286
154 160 168 184 206 157 154 141 134 345 162 167 123 92 52 8 352 345 338 331 327 325 325 325 327 328 322 314 311 306 306 308
157 177 162 173 195 179 142 161 159 207 123 124 83 56 12 358 353 342 327 323 330 336 333 333 331 324 319 314 307 305 302 300
122 134 166 196 172 136 111 108 77 79 81 67 60 48 14 347 334 334 329 328 320 321 327 326 326 323 317 311 303 302 302 302
113 115 88 133 125 110 72 76 76 93 85 56 28 351 334 328 339 341 342 334 327 323 323 324 318 319 318 318 308 296 295 301
88 78 76 74 84 77 67 56 50 33 12 46 30 13 2 13 7 0 354 350 335 332 331 320 318 329 323 317 313 310 311 319
68 67 72 70 69 72 44 13 0 1 355 350 10 21 23 10 355 348 344 341 334 328 325 317 322 330 344 9 339 333 335 319
76 74 61 43 15 0 20 19 8 345 5 23 15 9 1 355 348 343 337 333 332 331 331 330 326 355 348 324 329 335 324 321
65 48 12 318 307 355 68 348 30 34 42 14 355 350 349 347 349 339 339 336 337 340 341 339 340 346 4 355 346 334 328 293
114 57 47 21 272 304 38 94 83 48 23 5 357 354 351 349 350 351 345 340 335 340 351 354 0 353 344 336 329 306 309 284
201 41 17 17 89 89 74 80 68 67 34 8 352 345 350 1 357 356 355 354 348 345 342 345 340 334 328 317 315 305 300 290
59 24 63 62 60 64 69 51 44 27 357 345 342 8 16 351 345 349 350 347 343 342 337 331 327 317 316 313 311 304 298 288